Probability
17 18 19 21 21 17 11 8 8 8 8 8 7 6 5 4 4 4 4 2 0 0 0 0 0 0 0 0 0 0 0 0 0 0 0 0 0 0 0 0 0 0 0
16 16 17 19 19 16 12 9 8 8 8 7 7 6 5 5 5 5 4 2 1 0 0 0 0 0 0 0 0 0 0 0 0 0 0 0 0 0 0 0 0 0 0
13 14 15 18 19 16 13 10 7 7 6 6 6 6 6 6 5 4 2 2 1 0 0 0 0 0 0 0 0 0 0 0 0 0 0 0 0 0 0 0 0 0 0
10 12 14 17 17 15 12 9 6 4 4 4 4 4 5 5 4 3 1 0 0 0 0 0 0 0 0 0 0 0 0 0 0 0 0 0 0 0 0 0 0 0 0
9 10 13 14 14 12 10 7 4 3 4 4 4 3 4 4 3 2 1 0 0 0 0 1 0 0 0 0 0 0 0 0 0 0 0 0 0 0 0 0 0 0 0
7 8 10 11 10 10 8 5 4 3 3 4 3 3 3 3 3 2 1 0 0 0 0 0 0 0 0 0 0 0 0 0 0 0 0 0 0 0 0 0 0 0 0
6 7 7 7 8 7 6 6 5 4 3 3 3 4 3 3 3 3 1 0 0 0 0 0 0 0 0 0 0 0 0 0 0 0 0 0 0 0 0 0 0 0 0
6 6 6 6 6 6 5 6 6 5 3 3 4 4 4 3 3 3 2 1 0 0 0 0 0 0 0 0 0 0 0 0 0 0 0 0 0 0 0 0 0 0 0
6 6 6 6 6 6 5 5 6 5 4 4 4 4 3 3 3 3 2 1 0 0 0 0 0 0 0 0 0 0 0 0 0 0 0 0 0 0 0 0 0 0 0
6 6 6 6 6 5 4 3 4 4 3 3 4 3 3 3 3 3 1 0 0 0 0 0 0 0 0 0 0 0 0 0 0 0 0 0 0 0 0 0 0 0 0
6 6 6 6 5 4 3 3 3 3 2 2 3 4 3 3 3 2 1 0 0 0 0 0 0 0 0 0 0 0 0 0 0 0 0 0 0 0 0 0 0 0 0
5 5 5 5 4 3 3 3 3 3 1 1 2 3 3 3 1 1 0 0 0 0 0 0 0 0 0 0 0 0 0 0 0 0 0 0 0 0 0 0 0 0 0
3 3 3 3 4 4 3 3 3 3 2 1 1 2 2 2 1 0 0 0 0 0 0 0 0 0 0 0 0 0 0 0 0 0 0 0 0 0 0 0 0 0 0
2 1 1 2 3 4 4 3 3 2 2 1 0 0 1 1 1 0 0 0 0 0 0 0 0 0 0 0 0 0 0 0 0 0 0 0 0 0 0 0 0 0 0
1 0 0 1 1 2 3 2 1 1 1 0 0 0 0 0 0 0 0 0 0 0 0 0 0 0 0 0 0 0 0 0 0 0 0 0 0 0 0 0 0 0 0
0 0 0 0 0 1 1 1 0 0 0 0 0 0 0 0 0 0 0 0 0 0 0 0 0 0 0 0 0 0 0 0 0 0 0 0 0 0 0 0 0 0 0
1 0 1 1 0 0 0 0 1 1 0 0 0 0 0 0 0 0 0 0 0 0 0 0 0 0 0 0 0 0 0 0 0 0 0 0 0 0 0 0 0 0 0
1 1 2 2 1 0 0 1 2 2 1 0 0 0 0 0 0 0 0 0 0 0 0 0 0 0 0 0 0 0 0 0 0 0 0 0 0 0 0 0 0 0 0
1 1 2 2 1 0 1 2 3 2 1 0 0 0 0 0 0 0 0 0 0 0 0 0 0 0 0 0 0 0 0 0 0 0 0 0 0 0 0 0 0 0 0
0 0 1 1 1 0 1 3 3 2 1 0 0 0 0 0 0 0 0 0 0 0 0 0 0 0 0 0 0 0 0 0 0 0 0 0 0 0 0 0 0 0 0
0 0 0 0 0 0 2 3 3 3 2 1 0 0 0 0 0 0 0 0 0 0 0 0 0 0 0 0 0 0 0 0 0 0 0 0 0 0 0 0 0 0 0
0 0 0 0 0 0 1 2 3 3 3 2 1 1 1 1 0 0 0 0 0 0 0 0 0 0 0 0 0 0 0 0 0 0 0 0 0 0 0 0 0 0 0
0 0 0 0 0 0 0 1 2 2 3 2 2 2 2 2 1 1 0 0 0 0 0 0 0 0 0 0 0 0 0 0 0 0 0 0 0 0 0 0 0 0 0
0 0 0 0 0 0 0 0 1 1 1 3 4 4 3 2 2 1 0 0 0 0 0 0 0 0 0 0 0 0 0 0 0 0 0 0 0 0 0 0 0 0 0
0 0 0 0 0 0 0 0 0 0 1 3 5 4 3 2 1 1 0 0 0 0 0 0 0 0 0 0 0 0 0 0 0 0 0 0 0 0 0 0 0 0 0
0 0 0 0 0 0 0 0 0 0 0 1 3 3 2 1 0 0 0 0 0 0 0 0 0 0 0 0 0 0 0 0 0 0 0 0 0 0 0 0 0 0 0
Wind_Speed
6 6 7 8 9 9 9 9 9 8 7 6 5 4 4 3 3 3 4 5 5 5 4 3 3 3 3 2 3 2 3 2 1 2 2 3 3 3 2 2 1 2 1
6 8 8 8 9 9 9 9 9 9 8 6 5 4 4 3 2 2 3 4 5 5 4 4 3 3 3 3 2 2 2 2 2 2 2 2 3 3 3 2 2 2 2
10 9 10 9 9 10 10 10 9 9 8 7 5 5 4 3 2 2 2 2 4 5 4 5 4 3 3 3 2 2 4 3 2 2 3 3 2 1 3 3 4 3 3
9 9 10 10 11 10 9 10 9 8 8 8 8 9 6 4 4 3 3 3 4 5 5 5 4 4 3 3 2 2 2 4 2 2 2 2 2 2 1 2 3 4 4
11 11 10 10 10 9 9 9 9 8 8 8 9 8 6 4 3 4 5 4 3 4 4 5 4 4 3 3 3 3 3 2 3 2 2 3 3 2 2 1 3 3 3
11 10 9 8 7 8 8 9 9 8 8 8 8 9 9 7 7 6 5 4 2 2 4 5 4 4 3 3 3 3 5 3 4 3 2 2 2 2 2 2 1 2 2
11 11 11 10 10 10 10 10 10 8 8 9 9 9 9 9 9 8 7 6 3 3 3 4 4 4 3 4 4 4 4 4 4 3 2 2 2 2 2 2 1 1 2
11 12 12 12 12 12 11 11 11 9 9 9 9 8 8 7 6 7 6 6 5 4 5 5 5 4 5 5 4 4 3 4 4 4 4 2 2 1 2 2 3 1 2
13 12 12 12 12 12 11 12 11 9 9 9 8 8 8 7 7 7 6 5 4 5 6 5 5 5 5 5 5 4 4 4 4 4 3 2 1 2 1 2 2 3 1
12 11 11 12 11 11 10 10 10 10 9 9 8 8 8 8 8 7 7 7 6 6 7 6 5 5 5 5 4 4 4 4 3 2 3 3 2 2 2 2 2 2 3
13 12 11 10 10 9 10 10 9 8 8 9 8 8 8 7 8 7 8 7 6 7 7 7 6 6 5 5 4 4 4 4 3 3 3 3 2 2 2 2 2 2 2
10 11 11 10 10 10 10 10 10 9 9 9 8 9 8 8 8 7 7 7 7 7 7 7 6 6 6 5 5 5 5 5 4 4 3 3 2 2 2 2 2 2 2
9 10 10 11 11 11 11 11 11 10 9 9 9 9 9 9 9 8 8 8 8 7 7 7 7 6 6 6 5 5 5 4 4 4 4 4 3 3 2 2 2 2 2
11 11 11 11 11 11 11 11 11 10 10 10 10 10 10 10 9 8 8 8 8 8 7 7 7 6 6 6 5 5 5 4 4 4 4 4 5 5 4 3 3 3 2
10 13 13 12 11 11 11 11 11 11 11 11 11 10 9 8 8 8 8 8 8 8 7 7 6 5 5 6 6 6 6 5 4 4 4 5 7 7 6 4 4 4 3
12 13 13 13 14 14 13 12 12 12 12 12 11 10 9 9 9 9 8 8 7 7 7 7 7 6 6 8 10 7 5 5 5 5 5 5 6 7 9 10 9 7 6
11 12 14 14 14 14 14 14 13 12 12 12 11 11 11 11 10 10 9 9 8 7 7 7 7 7 7 9 10 10 6 5 5 5 5 4 4 5 4 6 7 8 11
9 11 11 12 12 11 12 12 11 12 13 12 12 11 11 11 10 9 10 9 7 7 7 7 7 7 7 10 10 10 6 5 6 6 6 6 6 5 5 5 5 6 7
8 10 11 11 11 12 12 12 12 12 13 13 13 13 13 12 11 11 11 8 7 7 7 6 8 8 8 10 10 9 5 5 6 6 6 7 7 8 7 6 6 7 8
5 6 7 7 9 11 12 13 13 13 15 15 14 13 12 13 13 12 10 7 7 8 8 7 7 8 8 9 11 10 4 5 5 5 5 8 9 9 8 7 7 8 8
3 5 7 8 9 10 12 13 13 15 15 13 11 11 12 12 11 10 8 7 7 7 7 7 7 7 8 9 11 11 6 6 5 5 5 6 9 11 10 9 8 10 8
1 4 6 7 6 9 11 12 13 13 10 10 11 11 12 11 10 10 9 8 9 8 7 6 6 6 6 8 9 12 12 9 6 7 6 6 7 9 10 8 9 10 8
0 2 5 6 6 7 10 12 11 9 10 11 11 10 10 9 9 10 10 8 8 7 7 6 7 6 5 6 10 11 12 13 8 7 8 8 8 8 7 9 10 7 5
1 2 4 5 6 6 7 8 6 8 10 11 10 9 10 9 8 7 8 8 8 8 7 7 7 5 4 5 5 5 6 8 8 7 7 7 8 7 7 6 5 5 5
2 3 4 4 4 5 5 5 6 8 9 9 8 8 8 8 8 7 6 7 7 8 8 7 6 6 6 7 8 6 5 5 5 3 3 3 3 3 4 4 5 4 4
3 3 4 4 4 4 4 4 5 8 9 7 7 6 6 6 6 6 4 3 4 6 7 7 6 5 7 6 8 8 7 6 5 4 3 4 4 5 5 5 5 4 5
Wind_Direction
178 169 170 167 163 163 168 168 161 157 153 147 149 146 146 144 133 138 142 143 140 137 132 128 125 129 130 141 141 117 95 66 65 87 51 25 30 38 23 15 19 9 343
177 173 169 160 160 165 167 163 161 161 162 160 151 140 132 127 122 122 126 139 140 139 140 134 135 132 123 117 121 127 116 70 49 111 100 49 18 14 21 23 37 27 24
185 174 169 167 161 167 172 169 166 161 157 148 129 117 102 94 104 115 121 136 136 133 133 139 133 129 126 129 127 133 130 121 60 56 129 135 169 345 359 20 31 26 31
181 177 173 170 172 174 172 169 164 158 155 150 150 152 151 153 164 154 142 126 125 132 132 131 130 129 126 126 127 117 118 126 121 72 54 88 136 134 69 360 9 24 32
182 179 178 176 172 169 168 166 157 159 160 161 159 155 147 141 132 126 129 120 112 124 129 130 130 130 125 122 114 108 104 109 127 128 115 87 71 75 123 77 353 7 16
183 178 174 167 164 162 163 161 159 163 163 165 163 160 154 148 142 142 144 137 121 113 123 128 128 128 124 122 118 109 104 99 103 105 110 126 124 117 114 123 51 357 347
182 177 174 172 171 168 168 166 165 168 167 166 166 166 162 160 161 159 158 153 145 144 152 140 136 132 129 124 118 109 106 108 109 108 97 97 106 127 125 120 115 36 343
185 183 183 177 175 174 171 169 171 171 170 171 170 167 164 163 164 163 161 165 163 160 156 146 142 140 138 130 121 111 111 109 109 107 106 99 92 110 130 136 136 97 8
187 185 181 176 175 176 176 175 172 170 173 172 166 165 165 164 164 161 158 158 154 152 150 147 144 143 138 134 129 119 117 116 109 114 113 104 93 92 102 124 140 141 137
184 180 179 179 178 177 175 173 174 174 170 169 171 171 169 168 162 157 160 160 158 150 150 151 149 147 143 139 131 128 132 125 123 128 122 115 116 103 103 117 124 133 149
182 182 182 178 173 170 170 173 174 169 168 170 168 162 164 161 157 161 164 162 160 157 159 161 157 155 153 150 142 144 146 141 141 145 144 142 141 130 131 131 131 135 147
179 178 176 171 171 174 175 176 177 175 173 167 163 163 159 156 160 164 165 162 163 164 164 162 161 164 162 161 161 164 163 162 165 168 161 168 160 154 157 154 158 167 180
171 172 171 174 179 180 180 179 179 177 169 163 162 160 160 163 169 169 165 163 162 162 162 164 167 169 169 173 177 174 175 180 182 182 185 189 175 189 191 189 190 193 190
177 177 178 180 182 181 181 179 180 173 166 164 165 169 173 174 173 168 165 166 164 164 168 173 175 175 176 179 180 179 182 189 196 198 202 203 201 209 207 208 210 204 202
186 185 185 184 181 179 179 179 178 172 169 168 173 180 178 171 166 167 168 165 167 174 173 171 176 177 179 188 186 186 190 194 204 213 218 223 222 222 216 214 211 202 212
195 192 188 185 185 184 182 178 178 176 172 176 182 177 170 170 172 173 169 167 172 172 171 179 182 187 199 200 196 189 191 197 206 220 230 238 240 240 235 234 225 208 213
194 192 191 190 190 189 184 182 181 174 175 181 180 176 174 177 179 177 172 178 181 177 180 188 189 199 213 211 206 203 193 203 212 220 230 243 243 237 243 251 249 236 231
198 196 193 192 189 185 181 178 172 174 179 182 182 179 179 182 178 176 182 187 181 183 189 194 197 203 220 217 215 212 205 212 221 225 227 236 251 247 238 249 258 257 250
208 202 195 188 181 180 177 170 173 177 181 186 187 185 183 182 180 186 189 186 182 189 193 195 198 206 222 219 217 207 200 220 234 236 233 233 246 250 240 239 254 269 271
217 205 186 170 173 179 169 171 179 181 189 192 191 186 184 184 187 191 188 181 184 194 195 203 205 209 219 220 217 204 200 223 240 246 242 236 239 249 239 230 240 257 268
224 184 170 171 181 175 168 177 183 194 197 189 182 180 184 188 188 185 179 178 185 188 195 205 211 213 219 222 217 205 201 216 233 246 250 245 239 244 244 231 232 242 255
214 171 167 174 172 168 173 182 194 196 183 174 176 182 185 187 187 180 181 181 183 190 200 206 217 221 221 221 220 212 211 212 223 241 248 250 250 249 251 242 239 248 255
173 174 172 165 161 170 177 189 196 179 169 171 179 181 181 184 180 182 184 181 185 195 204 206 218 226 220 221 222 220 220 220 224 241 246 252 259 261 258 250 249 249 242
79 117 140 149 160 174 184 191 179 166 166 174 179 176 178 181 180 181 183 185 189 197 203 207 217 223 220 221 218 218 221 225 231 245 255 258 259 253 257 264 255 240 235
43 100 129 147 158 162 169 166 156 157 162 168 171 172 176 174 176 179 184 190 198 196 197 206 205 208 224 226 213 206 212 212 214 211 231 239 244 253 257 261 262 255 244
48 82 101 120 134 144 148 140 147 153 153 156 161 163 164 164 167 168 164 171 181 186 195 204 201 214 224 226 214 212 218 217 196 184 226 238 243 251 259 266 269 262 254